Location: Home
(42.5358°N, 72.7383°W)
Time: 05:47:33
(UTC-05:00)

Explorer 11/Cluster Stage 4 - Pass Details

Date: 06 December 2021
Orbit: 467 x 1255 km, 28.8° (Epoch: 25 January)

Event Time Altitude Azimuth Distance (km) Brightness Sun altitude
Rises 04:51:13 0° 255° (WSW) 3,751 - -24.1°
Reaches altitude 10° 04:54:34 10° 239° (WSW) 2,926 - -23.5°
Exits shadow 04:56:53 17° 222° (SW) 2,538 8.9 -23.1°
Maximum altitude 04:59:38 20° 195° (SSW) 2,400 9.0 -22.6°
Drops below altitude 10° 05:05:06 10° 152° (SSE) 3,183 10.2 -21.6°
Sets 05:08:57 0° 137° (SE) 4,183 11.2 -20.9°
